ARG1644 SAMM-SABE

Flight info

Callsign ARG1644
Flight time N/A
Altitude 39000
Route USVER UM783 GPI UW68 ASADA ASADA8Q
Aircraft E190/M-SDE3GILORVW/S

Departure

Time 2026-05-05 22:35
Airport Comodoro D.R. Salomón Airport (SAMM)

Arrival

Time N/A
Airport Aeroparque Jorge Newbery (SABE)
Time Latitude Longitude Altitude Speed Heading
2026-05-05 22:12 -35.48372 -69.58416 4703 ft 0 kts 307°
2026-05-05 22:26 -35.48369 -69.58418 4702 ft 0 kts 351°
2026-05-05 22:26 -35.48359 -69.58412 4702 ft 3 kts 59°
2026-05-05 22:26 -35.48366 -69.58364 4700 ft 7 kts 102°
2026-05-05 22:27 -35.48378 -69.58292 4698 ft 5 kts 126°
2026-05-05 22:27 -35.48430 -69.58250 4698 ft 17 kts 146°
2026-05-05 22:27 -35.48497 -69.58192 4698 ft 11 kts 146°
2026-05-05 22:27 -35.48563 -69.58139 4698 ft 11 kts 145°
2026-05-05 22:28 -35.48628 -69.58084 4698 ft 11 kts 145°
2026-05-05 22:28 -35.48690 -69.58030 4699 ft 10 kts 144°
2026-05-05 22:28 -35.48745 -69.57979 4699 ft 9 kts 144°
2026-05-05 22:28 -35.48800 -69.57931 4699 ft 9 kts 145°
2026-05-05 22:29 -35.48861 -69.57877 4700 ft 11 kts 146°
2026-05-05 22:29 -35.48931 -69.57819 4700 ft 12 kts 147°
2026-05-05 22:29 -35.48995 -69.57763 4702 ft 10 kts 143°
2026-05-05 22:29 -35.49059 -69.57703 4702 ft 12 kts 143°
2026-05-05 22:30 -35.49130 -69.57645 4702 ft 11 kts 144°
2026-05-05 22:30 -35.49195 -69.57586 4702 ft 11 kts 146°
2026-05-05 22:30 -35.49257 -69.57533 4703 ft 11 kts 146°
2026-05-05 22:30 -35.49337 -69.57463 4704 ft 16 kts 145°
2026-05-05 22:31 -35.49433 -69.57378 4703 ft 17 kts 145°
2026-05-05 22:31 -35.49545 -69.57281 4702 ft 21 kts 146°
2026-05-05 22:31 -35.49658 -69.57185 4702 ft 12 kts 143°
2026-05-05 22:31 -35.49731 -69.57121 4702 ft 12 kts 145°
2026-05-05 22:32 -35.49804 -69.57059 4702 ft 12 kts 146°
2026-05-05 22:32 -35.49875 -69.56996 4702 ft 12 kts 144°
2026-05-05 22:32 -35.49971 -69.56912 4701 ft 19 kts 145°
2026-05-05 22:32 -35.50088 -69.56811 4699 ft 21 kts 144°
2026-05-05 22:33 -35.50171 -69.56741 4698 ft 13 kts 144°
2026-05-05 22:33 -35.50249 -69.56671 4697 ft 14 kts 146°
2026-05-05 22:33 -35.50303 -69.56637 4696 ft 4 kts 126°
2026-05-05 22:33 -35.50300 -69.56629 4696 ft 1 kts 40°
2026-05-05 22:34 -35.50293 -69.56630 4696 ft 0 kts 330°
2026-05-05 22:34 -35.50292 -69.56630 4696 ft 0 kts 325°
2026-05-05 22:34 -35.50133 -69.56770 4698 ft 61 kts 323°
2026-05-05 22:34 -35.49618 -69.57219 4702 ft 120 kts 325°
2026-05-05 22:35 -35.48788 -69.57940 4716 ft 164 kts 324°
2026-05-05 22:35 -35.47808 -69.58763 4941 ft 184 kts 326°
2026-05-05 22:35 -35.46640 -69.59653 5172 ft 211 kts 339°
2026-05-05 22:35 -35.45241 -69.59753 5924 ft 212 kts 17°
2026-05-05 22:36 -35.44030 -69.58684 6480 ft 230 kts 58°
2026-05-05 22:36 -35.43615 -69.56750 7124 ft 244 kts 86°
2026-05-05 22:36 -35.43621 -69.54649 7882 ft 251 kts 90°
2026-05-05 22:36 -35.43726 -69.52434 8230 ft 276 kts 93°
2026-05-05 22:37 -35.43903 -69.50005 8661 ft 297 kts 94°
2026-05-05 22:37 -35.44122 -69.47425 9339 ft 307 kts 94°
2026-05-05 22:37 -35.44355 -69.44846 10172 ft 310 kts 94°
2026-05-05 22:37 -35.44595 -69.42228 10939 ft 315 kts 94°
2026-05-05 22:38 -35.44846 -69.39533 11529 ft 327 kts 93°
2026-05-05 22:38 -35.45106 -69.36727 12092 ft 338 kts 93°
2026-05-05 22:38 -35.45377 -69.33817 12661 ft 350 kts 91°
2026-05-05 22:38 -35.45659 -69.30797 13257 ft 359 kts 91°
2026-05-05 22:39 -35.45938 -69.27777 13948 ft 365 kts 91°
2026-05-05 22:39 -35.46229 -69.24641 14624 ft 371 kts 91°
2026-05-05 22:39 -35.46515 -69.21542 15322 ft 375 kts 91°
2026-05-05 22:39 -35.46809 -69.18337 15986 ft 380 kts 91°
2026-05-05 22:40 -35.47109 -69.15064 16532 ft 389 kts 90°
2026-05-05 22:40 -35.47395 -69.11941 17091 ft 396 kts 90°
2026-05-05 22:40 -35.47706 -69.08524 17660 ft 403 kts 90°
2026-05-05 22:40 -35.48013 -69.05143 18317 ft 407 kts 90°
2026-05-05 22:41 -35.48327 -69.01684 19008 ft 410 kts 91°
2026-05-05 22:41 -35.48642 -68.98202 19669 ft 414 kts 91°
2026-05-05 22:41 -35.48955 -68.94710 20325 ft 417 kts 91°
2026-05-05 22:41 -35.49276 -68.91130 20917 ft 423 kts 92°
2026-05-05 22:42 -35.49593 -68.87579 21502 ft 427 kts 91°
2026-05-05 22:42 -35.49917 -68.83953 22150 ft 430 kts 92°
2026-05-05 22:42 -35.50241 -68.80315 22778 ft 433 kts 92°
2026-05-05 22:42 -35.50564 -68.76653 23376 ft 436 kts 92°
2026-05-05 22:43 -35.50892 -68.72928 23907 ft 441 kts 92°
2026-05-05 22:43 -35.51224 -68.69164 24419 ft 447 kts 92°
2026-05-05 22:43 -35.51555 -68.65385 24990 ft 450 kts 92°
2026-05-05 22:43 -35.51885 -68.61576 25501 ft 454 kts 93°
2026-05-05 22:44 -35.52221 -68.57714 25973 ft 459 kts 92°
2026-05-05 22:44 -35.52562 -68.53785 26491 ft 463 kts 93°
2026-05-05 22:44 -35.52900 -68.49857 26960 ft 468 kts 93°
2026-05-05 22:44 -35.53239 -68.45918 27491 ft 470 kts 92°
2026-05-05 22:45 -35.53581 -68.41917 27984 ft 474 kts 93°
2026-05-05 22:45 -35.53928 -68.37840 28496 ft 477 kts 93°
2026-05-05 22:45 -35.54274 -68.33765 28910 ft 482 kts 92°
2026-05-05 22:45 -35.54620 -68.29677 29343 ft 485 kts 92°
2026-05-05 22:46 -35.54963 -68.25587 29746 ft 490 kts 92°
2026-05-05 22:46 -35.55315 -68.21394 30167 ft 493 kts 92°
2026-05-05 22:46 -35.55662 -68.17229 30596 ft 496 kts 92°
2026-05-05 22:46 -35.56015 -68.12993 31030 ft 499 kts 92°
2026-05-05 22:47 -35.56364 -68.08779 31426 ft 502 kts 92°
2026-05-05 22:47 -35.56712 -68.04539 31811 ft 506 kts 92°
2026-05-05 22:47 -35.56997 -68.00251 32253 ft 505 kts 89°
2026-05-05 22:47 -35.57180 -67.95962 32750 ft 506 kts 90°
2026-05-05 22:48 -35.57376 -67.91663 33216 ft 507 kts 90°
2026-05-05 22:48 -35.57574 -67.87328 33764 ft 505 kts 90°
2026-05-05 22:48 -35.57767 -67.83048 34245 ft 505 kts 90°
2026-05-05 22:48 -35.57961 -67.78755 34707 ft 505 kts 90°
2026-05-05 22:49 -35.58151 -67.74487 35162 ft 504 kts 90°
2026-05-05 22:49 -35.58342 -67.70183 35559 ft 505 kts 90°
2026-05-05 22:49 -35.58531 -67.65873 35936 ft 507 kts 90°
2026-05-05 22:49 -35.58720 -67.61566 36309 ft 508 kts 90°
2026-05-05 22:50 -35.58905 -67.57256 36673 ft 509 kts 91°
2026-05-05 22:50 -35.59092 -67.52917 37044 ft 510 kts 90°
2026-05-05 22:50 -35.59277 -67.48543 37423 ft 511 kts 90°
2026-05-05 22:50 -35.59460 -67.44213 37757 ft 513 kts 90°
2026-05-05 22:51 -35.59643 -67.39815 38050 ft 515 kts 91°
2026-05-05 22:51 -35.59826 -67.35426 38364 ft 517 kts 90°
2026-05-05 22:51 -35.60005 -67.31074 38728 ft 516 kts 90°
2026-05-05 22:51 -35.60185 -67.26649 38893 ft 511 kts 90°
2026-05-05 22:52 -35.60360 -67.22304 38908 ft 518 kts 89°
2026-05-05 22:52 -35.60715 -67.13364 38924 ft 533 kts 89°
2026-05-05 22:53 -35.61074 -67.04164 38907 ft 546 kts 90°
2026-05-05 22:53 -35.61429 -66.94923 38895 ft 543 kts 90°
2026-05-05 22:54 -35.61776 -66.85668 38903 ft 543 kts 89°
2026-05-05 22:54 -35.62116 -66.76394 38904 ft 545 kts 90°
2026-05-05 22:55 -35.62448 -66.67190 38918 ft 544 kts 89°
2026-05-05 22:55 -35.62772 -66.57947 38908 ft 545 kts 89°
2026-05-05 22:56 -35.63093 -66.48646 38918 ft 544 kts 90°
2026-05-05 22:56 -35.63403 -66.39449 38918 ft 543 kts 90°
2026-05-05 22:57 -35.63708 -66.30170 38905 ft 543 kts 89°
2026-05-05 22:57 -35.64006 -66.20905 38911 ft 543 kts 89°
2026-05-05 22:58 -35.64295 -66.11700 38912 ft 543 kts 90°
2026-05-05 22:58 -35.64578 -66.02399 38921 ft 542 kts 89°
2026-05-05 22:59 -35.64852 -65.93160 38922 ft 543 kts 90°
2026-05-05 22:59 -35.65117 -65.83975 38922 ft 543 kts 90°
2026-05-05 23:00 -35.65506 -65.70022 38922 ft 544 kts 90°
2026-05-05 23:00 -35.65756 -65.60789 38921 ft 545 kts 90°
2026-05-05 23:01 -35.65998 -65.51511 38925 ft 545 kts 90°
2026-05-05 23:01 -35.66234 -65.42258 38925 ft 546 kts 90°
2026-05-05 23:02 -35.66463 -65.32956 38921 ft 544 kts 90°
2026-05-05 23:02 -35.66684 -65.23693 38912 ft 544 kts 89°
2026-05-05 23:03 -35.66900 -65.14427 38908 ft 544 kts 90°
2026-05-05 23:03 -35.67107 -65.05132 38915 ft 545 kts 90°
2026-05-05 23:04 -35.67307 -64.95862 38914 ft 544 kts 90°
2026-05-05 23:04 -35.67501 -64.86578 38912 ft 545 kts 90°
2026-05-05 23:05 -35.67686 -64.77276 38907 ft 545 kts 90°
2026-05-05 23:05 -35.67862 -64.68038 38915 ft 545 kts 90°
2026-05-05 23:06 -35.68030 -64.58785 38915 ft 545 kts 90°
2026-05-05 23:06 -35.68193 -64.49490 38913 ft 546 kts 90°
2026-05-05 23:07 -35.68349 -64.40176 38918 ft 543 kts 90°
2026-05-05 23:07 -35.68496 -64.30925 38898 ft 544 kts 89°
2026-05-05 23:08 -35.68636 -64.21695 38902 ft 543 kts 89°
2026-05-05 23:08 -35.68769 -64.12447 38904 ft 542 kts 90°
2026-05-05 23:09 -35.68895 -64.03198 38911 ft 543 kts 90°
2026-05-05 23:09 -35.69015 -63.93946 38915 ft 541 kts 90°
2026-05-05 23:10 -35.69126 -63.84711 38928 ft 543 kts 90°
2026-05-05 23:10 -35.69038 -63.75443 38922 ft 542 kts 81°
2026-05-05 23:11 -35.67856 -63.66376 38922 ft 539 kts 77°
2026-05-05 23:11 -35.66596 -63.57333 38922 ft 539 kts 77°
2026-05-05 23:12 -35.65324 -63.48265 38928 ft 541 kts 77°
2026-05-05 23:12 -35.64044 -63.39183 38930 ft 541 kts 78°
2026-05-05 23:13 -35.62743 -63.30092 38901 ft 541 kts 77°
2026-05-05 23:13 -35.61408 -63.21068 38907 ft 541 kts 77°
2026-05-05 23:14 -35.60060 -63.11993 38906 ft 539 kts 77°
2026-05-05 23:14 -35.58709 -63.02943 38908 ft 540 kts 77°
2026-05-05 23:15 -35.57349 -62.93892 38909 ft 541 kts 77°
2026-05-05 23:15 -35.55986 -62.84863 38919 ft 541 kts 77°
2026-05-05 23:16 -35.54619 -62.75860 38925 ft 540 kts 77°
2026-05-05 23:16 -35.53241 -62.66823 38924 ft 542 kts 77°
2026-05-05 23:17 -35.51851 -62.57764 38934 ft 540 kts 77°
2026-05-05 23:17 -35.50458 -62.48732 38932 ft 541 kts 77°
2026-05-05 23:18 -35.49054 -62.39660 38929 ft 541 kts 77°
2026-05-05 23:18 -35.47688 -62.30888 38907 ft 539 kts 77°
2026-05-05 23:19 -35.46988 -62.26413 38842 ft 522 kts 77°
2026-05-05 23:19 -35.46312 -62.22097 38815 ft 512 kts 77°
2026-05-05 23:19 -35.44952 -62.13457 38834 ft 528 kts 77°
2026-05-05 23:20 -35.43531 -62.04472 38821 ft 542 kts 77°
2026-05-05 23:20 -35.42050 -61.95143 38830 ft 540 kts 77°
2026-05-05 23:21 -35.40610 -61.86125 38832 ft 541 kts 77°
2026-05-05 23:21 -35.39167 -61.77135 38826 ft 541 kts 77°
2026-05-05 23:22 -35.37714 -61.68133 38834 ft 539 kts 77°
2026-05-05 23:22 -35.35399 -61.53873 38851 ft 539 kts 77°
2026-05-05 23:23 -35.26935 -61.02697 38832 ft 536 kts 77°
2026-05-05 23:23 -35.26236 -60.98526 38823 ft 524 kts 77°
2026-05-05 23:23 -35.25535 -60.94353 38836 ft 518 kts 76°
2026-05-05 23:24 -35.24141 -60.86099 38228 ft 525 kts 76°
2026-05-05 23:24 -35.23444 -60.81983 37692 ft 520 kts 77°
2026-05-05 23:24 -35.22746 -60.77868 37145 ft 514 kts 77°
2026-05-05 23:25 -35.22060 -60.73831 36614 ft 508 kts 77°
2026-05-05 23:25 -35.21384 -60.69866 36088 ft 503 kts 77°
2026-05-05 23:25 -35.20706 -60.65889 35569 ft 500 kts 77°
2026-05-05 23:25 -35.20027 -60.61932 35038 ft 501 kts 77°
2026-05-05 23:26 -35.19350 -60.57980 34526 ft 500 kts 77°
2026-05-05 23:26 -35.18665 -60.53989 33988 ft 498 kts 77°
2026-05-05 23:26 -35.17995 -60.50098 33473 ft 497 kts 77°
2026-05-05 23:26 -35.17312 -60.46133 32948 ft 498 kts 77°
2026-05-05 23:27 -35.16629 -60.42187 32425 ft 498 kts 77°
2026-05-05 23:27 -35.15948 -60.38258 31902 ft 498 kts 77°
2026-05-05 23:27 -35.15266 -60.34327 31376 ft 496 kts 76°
2026-05-05 23:27 -35.14588 -60.30423 30855 ft 496 kts 76°
2026-05-05 23:28 -35.13957 -60.26801 30371 ft 495 kts 77°
2026-05-05 23:28 -35.13298 -60.23021 29875 ft 490 kts 77°
2026-05-05 23:28 -35.12658 -60.19360 29396 ft 485 kts 76°
2026-05-05 23:28 -35.11986 -60.15525 28885 ft 479 kts 77°
2026-05-05 23:29 -35.11317 -60.11709 28382 ft 475 kts 77°
2026-05-05 23:29 -35.10667 -60.08012 27891 ft 471 kts 76°
2026-05-05 23:29 -35.10007 -60.04266 27391 ft 466 kts 77°
2026-05-05 23:29 -35.09362 -60.00608 26904 ft 462 kts 76°
2026-05-05 23:30 -35.08723 -59.96993 26424 ft 458 kts 76°
2026-05-05 23:30 -35.08086 -59.93395 25946 ft 454 kts 77°
2026-05-05 23:30 -35.07449 -59.89807 25467 ft 451 kts 77°
2026-05-05 23:30 -35.06825 -59.86295 25000 ft 447 kts 76°